Location: Voyageurs National Park
(48.5020°N, 92.9292°W)
Time: 14:35:39
(UTC-06:00)

Daily predictions for brighter satellites

Satellite Brightness Start Highest point End
(mag) Time Altitude Azimuth Time Altitude Azimuth Time Altitude Azimuth
Meteor 2-4 Rocket 4.0 18:13:44 10° N 18:19:00 42° ENE 18:24:08 10° SE
Cosmos 2219 Rocket 2.8 18:15:50 10° NNW 18:20:59 35° NE 18:26:05 10° ESE
Cosmos 2360 Rocket 2.5 18:15:42 10° NNW 18:21:23 78° WSW 18:27:03 10° SSE
CZ-4 R/B 4.1 18:17:57 10° SSW 18:21:31 27° W 18:25:07 10° NW
Gbstr 26 Del rocket 3.6 18:18:19 10° SSW 18:21:48 32° SE 18:25:11 10° E
Meteor 1-13 Rocket 4.2 18:20:20 10° N 18:25:55 74° ENE 18:31:34 10° SSE
Geosat 4.2 18:25:22 10° NNE 18:30:26 80° WNW 18:35:27 10° SW
Cosmos 2219 3.9 18:28:16 10° SSE 18:33:22 34° ESE 18:38:29 10° NE
Helios 1B rocket 4.4 18:33:09 10° E 18:33:32 10° E 18:33:56 10° E
Abrixas rocket 4.0 18:32:17 10° SSW 18:34:47 20° SE 18:37:11 11° E
FREGAT/IRIS 2.8 18:32:17 10° SSE 18:35:17 51° ENE 18:38:19 10° N
Cosmos 2227 Rocket 3.9 18:34:14 10° ESE 18:35:58 11° E 18:37:41 10° ENE
Cosmos 1023 Rocket 4.5 18:31:50 10° S 18:36:52 64° ESE 18:42:00 10° NNE
Helios 1A 4.4 18:34:35 10° ESE 18:37:35 20° ENE 18:40:36 10° NNE
Cosmos 1300 Rocket 3.6 18:35:44 10° S 18:40:06 63° E 18:44:31 10° NNE
Cosmos 1536 3.3 18:37:38 10° SSE 18:41:20 38° E 18:45:04 10° NNE
SL-16 R/B 3.7 18:39:51 10° N 18:43:55 20° NE 18:47:23 12° E
Cosmos 1340 3.8 18:44:19 10° NNW 18:48:00 49° W 18:51:39 10° S
COSMO-SKYMED 1 3.1 18:44:06 10° N 18:48:25 64° WNW 18:52:43 10° SSW
Cosmos 1437 4.3 18:49:32 10° NNE 18:51:54 18° ENE 18:52:45 17° E
Cosmos 1602 3.8 18:49:06 10° S 18:53:00 87° W 18:56:58 10° N
Cosmos 1763 Rocket 4.5 18:49:53 10° N 18:54:14 27° NE 18:57:29 15° ESE
CZ-4B DEB 4.5 18:59:15 16° ENE 18:59:15 16° ENE 19:00:58 10° NNE
Cosmos 1741 Rocket 4.0 18:54:58 10° S 19:00:06 62° ESE 19:05:16 10° NNE
Resurs 01 Rocket 1.6 18:57:44 10° SSE 19:02:03 58° ENE 19:06:24 10° N
Cosmos 1833 4.5 18:57:05 10° SW 19:02:45 72° WNW 19:08:24 10° NNE
Cosmos 2333 Rocket 2.3 19:01:26 10° NNW 19:07:09 59° ENE 19:12:50 10° SE
Meteor 1-11 Rocket 3.9 19:02:15 10° SSW 19:08:07 86° WNW 19:14:07 10° N
Cosmos 1980 3.9 19:02:37 10° NNW 19:08:08 49° NE 19:12:50 14° SE
Cosmos 1140 Rocket 3.7 19:03:42 10° SSW 19:08:50 73° WNW 19:14:02 10° NNE
Cosmos 614 Rocket 3.9 19:04:31 10° SSW 19:09:35 90° SE 19:14:42 10° NNE
GEOS 3 Rocket 4.5 19:08:20 16° ENE 19:11:36 28° ESE 19:16:06 10° S
Resurs 1-3 3.6 19:08:08 10° SSE 19:12:27 62° ENE 19:16:49 10° N
FENGYUN 3A 3.7 19:08:14 10° SSE 19:13:40 90° WNW 19:19:08 10° NNW
Cosmos 1633 4.0 19:11:39 10° SSW 19:15:11 42° WNW 19:18:43 10° N
Okean 1 Rocket 3.5 19:16:32 10° SSW 19:21:00 67° WNW 19:25:28 10° N
Cosmos 1892 Rocket 3.6 19:16:49 10° N 19:21:07 56° ENE 19:25:24 10° SSE
Cosmos 468 Rocket 3.9 19:18:11 10° NNW 19:23:27 74° ENE 19:28:43 10° SSE
Cosmos 1025 Rocket 3.2 19:19:03 10° NNW 19:23:27 76° W 19:27:50 10° S
SL-19 R/B 4.5 19:17:48 10° SSE 19:23:36 87° WSW 19:29:53 10° NNW
USA 229 DEB 4.1 19:19:24 10° NW 19:26:27 67° SW 19:33:37 10° SSE
USA 229 4.1 19:19:30 10° NW 19:26:34 67° SW 19:33:44 10° SSE
USA 186 2.3 19:31:50 37° NNE 19:31:50 37° NNE 19:33:52 10° N
Cosmos 1515 3.9 19:28:24 10° N 19:32:10 47° ENE 19:33:04 38° ESE
Spot 2 Rocket 3.6 19:27:10 10° SSE 19:32:13 79° WSW 19:37:21 10° NNW
Cosmos 2074 Rocket 4.0 19:25:59 10° S 19:32:14 86° E 19:38:35 10° N
Meteor 1-5 Rocket 4.3 19:30:24 10° S 19:36:23 86° E 19:42:15 10° NNE
Cosmos 2082 4.3 19:32:38 10° SSE 19:37:36 31° ESE 19:37:58 31° E
USA 215 3.9 19:33:11 14° NE 19:38:32 48° NNW 19:44:44 10° W
Cosmos 2184 Rocket 4.0 19:32:24 10° S 19:38:42 88° W 19:45:00 10° N
NOSS 3-1 (A) 4.0 19:31:47 10° NW 19:39:07 68° NE 19:44:06 26° ESE
Spot 1 3.8 19:39:07 17° SSE 19:42:15 85° ENE 19:46:31 10° NNW
Cosmos 332 Rocket 4.0 19:38:02 10° NNW 19:42:50 51° ENE 19:44:09 39° ESE
Meteor 2-13 Rocket 4.3 19:37:06 10° S 19:43:07 70° E 19:49:13 10° NNE
ATLAS 2AS CENTAUR R/B 3.8 19:36:57 10° NW 19:44:26 37° NNE 19:48:06 25° ENE
Cosmos 1814 Rocket 3.8 19:39:22 10° NNW 19:44:33 83° ENE 19:47:53 22° SSE
Cosmos 405 Rocket 2.9 19:40:36 10° NNW 19:44:41 76° W 19:48:30 11° S
ERS-1 Rocket 3.7 19:45:10 33° ENE 19:45:20 33° ENE 19:49:49 10° N
Cosmos 1544 Rocket 3.4 19:44:04 10° S 19:48:21 65° E 19:52:39 10° NNE
Envisat 3.1 19:47:01 36° ESE 19:48:44 53° ENE 19:53:41 10° N
USA 32 4.0 19:47:13 10° N 19:52:23 55° E 19:54:07 38° SE
Nadezhda 3 Rocket 3.8 19:46:17 10° N 19:52:28 79° E 19:58:40 10° SSE
H-2A R/B 3.8 19:48:58 10° S 19:52:33 45° W 19:56:12 10° NNW
Cosmos 371 Rocket 3.5 19:47:51 10° NNW 19:52:36 48° ENE 19:53:07 46° E
ALOS 3.8 19:48:31 10° SSW 19:52:50 37° W 19:57:12 10° NNW
Cosmos 2237 Rocket 2.2 19:47:19 10° NNW 19:53:05 89° WSW 19:56:29 25° SSE
CZ-2D R/B 3.7 19:49:35 10° S 19:53:21 59° W 19:57:09 10° NNW
NOSS 0 Rocket 4.2 19:47:42 10° NNW 19:53:50 69° WSW 19:59:13 14° SSE
Aureole 2 Rocket 3.9 19:51:54 10° N 19:53:45 26° N 19:53:45 26° N
COSMOS 2428 4.5 19:52:02 10° NW 19:56:59 31° WSW 20:01:56 10° SSW
NOSS 3-1 (C) 4.0 19:49:35 10° NW 19:57:02 87° SW 20:02:15 25° SE
Cosmos 1066 Rocket 4.1 19:52:11 10° N 19:57:51 66° ENE 20:00:03 36° SE
Cosmos 2297 Rocket 3.2 19:53:24 10° S 19:56:25 28° SSE 19:56:25 28° SSE
Cosmos 1602 Rocket 3.9 19:55:20 10° N 19:59:04 46° NE 19:59:04 46° NE
Meteor 1-12 Rocket 4.2 19:58:44 10° S 20:04:38 66° E 20:10:29 10° NNE
Cosmos 1626 Rocket 3.7 20:00:12 10° N 20:04:09 55° NE 20:04:09 55° NE
SJ-11-01 4.2 20:04:08 58° SE 20:04:55 70° ENE 20:09:41 10° N
Cosmos 2219 Rocket 3.1 19:59:44 10° NW 20:05:04 46° WSW 20:10:23 10° S
Cosmos 2341 Rocket 3.9 20:00:46 10° S 20:07:03 65° E 20:13:23 10° NNE
Cosmos 2154 Rocket 3.9 20:01:50 10° S 20:08:11 84° E 20:14:33 10° N
Gbstr 26 Del rocket 2.8 20:04:40 10° W 20:08:15 68° NW 20:08:15 68° NW
Helios 1B rocket 2.3 20:05:17 10° NNE 20:09:28 88° WNW 20:13:37 10° SSW
Abrixas rocket 3.7 20:07:56 10° WSW 20:09:57 33° SW 20:09:57 33° SW
Helios 1A 3.8 20:10:06 19° S 20:12:52 49° W 20:16:55 10° NNW
Meteor 1-21 4.5 20:07:49 10° N 20:13:04 47° ENE 20:13:04 47° ENE
Cosmos 1441 Rocket 3.4 20:09:39 10° NNW 20:13:31 75° WNW 20:13:31 75° WNW
Cosmos 2219 4.2 20:11:52 10° SW 20:17:23 46° NW 20:22:56 10° NNE
Cosmos 1486 Rocket 4.1 20:12:29 10° S 20:23:50 - NNE 20:16:55 57° SSE
Cosmos 2227 Rocket 2.0 20:13:20 10° SSW 20:18:57 71° ESE 20:20:36 46° NE
Cosmos 1939 Rocket 3.6 20:21:00 45° N 20:21:00 45° N 20:23:51 10° NNW
Cosmos 841 Rocket 3.5 20:20:40 10° NNW 20:25:49 77° WSW 20:26:32 64° S
Cosmos 1455 Rocket 3.4 20:21:31 10° SSW 20:25:51 64° W 20:30:12 10° N
SL-16 R/B 2.0 20:23:16 10° NNW 20:28:59 80° ENE 20:29:17 77° ESE
H-2A R/B 3.9 20:31:16 20° NNE 20:31:16 20° NNE 20:33:34 10° N
Cosmos 1763 Rocket 4.1 20:31:21 10° NNW 20:36:20 52° WSW 20:37:34 42° SSW
Cosmos 962 Rocket 4.5 20:32:12 10° SSW 20:38:23 78° W 20:44:33 10° N
Resurs 01 Rocket 4.4 20:36:01 10° SW 20:38:54 17° W 20:41:49 10° NW
Cosmos 540 Rocket 4.0 20:35:21 10° NNW 20:39:13 49° N 20:39:13 49° N
Meteor 2-19 Rocket 4.3 20:41:22 80° SE 20:41:32 82° E 20:47:45 10° NNE
GEOS 3 Rocket 3.9 20:49:28 63° NNW 20:49:56 66° NW 20:55:09 10° SW
Cosmos 2333 Rocket 4.1 20:46:20 10° NW 20:51:01 26° WSW 20:55:04 13° SSW
SPOT 5 4.3 21:04:11 33° N 21:04:11 33° N 21:06:59 10° NNW
USA 215 3.9 21:20:32 43° NNE 21:20:50 44° N 21:26:56 10° WNW
SL-8 Rocket 4.4 21:22:16 60° NW 21:22:16 60° NW 21:28:06 10° N
ERS-1 Rocket 4.5 21:25:09 34° WNW 21:25:09 34° WNW 21:28:45 10° NNW
ATLAS 2AS CENTAUR R/B 3.1 21:28:18 10° NW 21:35:32 73° NW 21:35:32 73° NW
Cosmos 2297 Rocket 4.4 21:37:18 10° WSW 21:50:08 - NNE 21:38:27 16° WSW
Cosmos 2227 Rocket 4.1 21:58:53 10° W 22:09:15 - NNE 22:02:46 25° WNW
H-2A R/B 4.4 22:11:53 20° NNW 22:11:53 20° NNW 22:13:37 10° NNW
